Location: Chaumontel
(49.1247°N, 2.4324°E)
Time: 17:55:43
(UTC+00:00)

Envisat - Pass Details

Date: 16 May 2026
Orbit: 761 x 763 km, 98.4° (Epoch: 10 June)

Event Time Altitude Azimuth Distance (km) Brightness Sun altitude
Rises 03:13:21 0° 10° (N) 3,237 7.1 -7.8°
Reaches altitude 10° 03:15:44 10° 4° (N) 2,306 6.2 -7.5°
Maximum altitude 03:20:35 48° 292° (WNW) 995 3.4 -6.9°
Drops below altitude 10° 03:25:25 10° 219° (SW) 2,290 4.8 -6.3°
Enters shadow 03:26:09 - 217° (SW) 2,575 5.1 -6.2°
